Wind_Speed
35 37 38 38 37 37 37 38 40 44 48 53 60 67 71 73 73 76 78 77 74 73 73 75 78 77 73 70 69 68 67 69 77 84 84 81 80 80 84 89 94 97 98 100 101 100 100 101 100 99 98 97 95 92 89 89 88 87 89 94 96 94 90 87 84 82 80 80 78 77 79 80 78 77
35 36 37 37 35 34 34 34 35 38 41 45 50 58 66 71 72 73 76 77 76 74 74 74 77 79 76 72 70 69 67 67 72 80 83 82 80 78 79 82 89 94 96 98 101 100 98 99 100 99 98 97 96 93 90 89 88 87 86 90 94 96 93 89 86 83 81 80 77 76 78 80 78 76
35 36 36 35 33 32 31 31 31 33 36 39 43 48 56 64 69 71 72 74 75 75 75 75 76 79 79 75 72 70 68 67 69 76 82 83 81 79 78 77 82 89 94 96 99 100 98 96 98 98 97 97 96 94 91 89 89 87 85 87 90 94 95 91 88 84 81 79 78 77 77 77 76 75
36 36 35 33 31 29 28 28 28 29 30 33 37 41 47 54 62 69 70 70 72 75 76 76 76 78 80 78 74 71 69 68 68 72 79 82 82 81 78 76 78 84 90 93 96 99 98 94 94 97 97 96 96 95 93 90 89 88 86 85 86 90 95 94 89 85 80 79 77 75 76 75 75 77
37 36 34 31 29 29 28 27 27 27 28 29 31 35 40 45 52 61 67 67 68 71 74 76 77 78 79 78 75 72 70 69 68 70 75 80 81 81 79 76 76 80 86 90 92 96 97 94 92 93 96 96 95 95 94 91 89 88 87 85 84 86 92 94 92 86 79 77 75 70 72 79 80 81
36 35 32 30 30 29 29 28 27 26 26 27 28 31 35 39 45 53 60 64 65 67 71 76 78 78 78 77 76 74 71 70 68 68 72 77 80 81 79 76 74 76 81 86 89 92 95 94 91 90 93 96 95 95 94 92 90 89 87 86 83 84 88 91 93 88 77 74 77 71 69 77 78 72
35 33 31 30 30 30 29 27 26 24 24 24 25 27 31 34 39 45 52 58 62 65 68 73 77 79 78 76 75 75 73 71 69 67 69 74 78 80 80 77 73 72 75 81 86 89 91 92 91 89 90 94 95 94 94 92 90 89 88 86 84 83 85 88 92 92 82 74 75 75 71 71 72 65
34 32 31 31 31 30 28 26 24 22 20 20 20 22 25 29 33 39 44 51 58 62 66 70 75 78 77 75 75 75 74 71 69 67 67 71 76 79 79 78 75 72 73 76 82 86 88 89 90 89 88 91 94 94 94 92 90 89 88 86 84 82 84 87 89 92 92 82 74 72 67 63 67 70
34 33 32 32 31 30 28 25 22 19 16 14 14 15 18 22 27 33 38 44 51 58 63 67 71 75 75 74 74 75 74 72 70 67 66 69 73 77 78 78 76 74 73 74 79 83 84 85 88 89 87 87 91 93 93 92 90 88 87 86 84 83 84 86 88 91 95 93 84 76 71 66 65 71
34 34 33 32 31 30 27 22 18 14 11 10 10 10 12 15 19 26 32 38 45 52 58 62 67 71 73 73 73 73 73 72 70 68 66 67 71 75 77 76 75 73 72 72 76 80 81 82 84 87 87 85 87 91 93 91 89 88 87 85 83 83 84 84 88 90 90 91 93 89 85 81 74 71
35 35 34 32 31 29 24 19 14 9 7 9 12 12 11 10 13 18 25 33 39 45 51 56 61 66 70 71 73 73 73 72 70 68 66 66 68 73 75 75 74 72 70 70 73 77 78 79 81 83 85 84 84 88 91 91 89 87 85 84 82 83 84 84 87 89 84 83 87 91 91 88 81 73
35 36 35 33 30 27 21 15 10 6 6 10 13 14 12 10 10 13 18 26 33 38 43 49 55 62 67 70 72 73 73 72 70 67 66 64 65 70 74 75 74 72 69 68 70 74 76 78 79 80 83 83 82 84 88 89 88 86 84 82 82 82 83 85 87 89 87 82 81 82 84 85 83 78
35 36 35 34 31 24 17 12 6 5 9 11 12 13 13 11 8 8 12 19 26 31 37 43 50 58 64 69 72 73 72 72 70 67 65 63 63 67 73 76 75 73 71 68 67 70 73 76 78 78 79 81 81 81 85 88 87 85 82 80 80 81 82 84 86 90 91 87 81 77 75 77 77 76
34 36 35 34 31 22 14 8 6 8 11 12 11 11 10 10 7 4 7 12 19 26 32 39 46 54 61 66 69 70 70 69 69 67 65 64 63 65 70 74 76 75 72 69 66 66 69 72 76 77 77 78 79 79 81 84 85 84 81 79 78 80 82 83 85 88 90 89 87 80 72 70 71 71
33 35 35 34 28 20 11 6 8 9 9 10 11 13 14 13 10 4 3 8 15 23 30 37 44 52 58 64 67 68 69 69 69 68 66 64 63 63 67 71 74 75 73 69 66 65 65 68 71 75 75 75 76 77 77 79 83 82 80 78 77 78 80 82 83 87 88 86 86 82 73 67 67 68
33 34 34 33 26 17 8 6 9 8 8 10 13 15 16 17 15 9 1 7 15 23 31 37 45 50 54 60 65 68 70 71 70 69 66 64 62 61 63 68 71 74 73 68 65 64 64 65 67 71 73 73 74 75 75 76 79 81 79 77 77 77 79 80 81 85 87 84 83 83 78 71 67 66
33 33 32 31 25 15 5 8 9 8 9 12 13 13 15 16 17 13 7 10 16 25 33 39 46 50 52 57 63 67 69 70 70 68 64 62 61 59 60 64 68 71 71 67 64 63 63 64 65 67 70 71 72 73 73 74 75 78 79 77 76 76 77 79 80 82 85 86 84 83 81 78 74 70
33 33 31 29 23 11 5 9 9 8 10 12 13 14 13 14 15 15 13 14 20 29 37 41 46 50 51 55 62 66 68 68 66 65 62 59 59 58 59 61 65 68 69 66 63 62 62 63 63 65 67 69 70 71 72 72 73 75 77 76 76 76 77 77 78 79 82 86 87 86 84 82 80 78
32 32 30 29 21 7 7 9 9 8 9 10 12 13 12 11 12 15 16 15 22 34 41 44 47 50 52 56 61 63 63 63 63 61 59 57 56 57 57 59 63 66 67 66 63 59 60 61 62 63 65 66 68 70 70 71 71 73 75 76 75 76 76 77 77 78 80 82 86 89 87 84 80 76
33 31 29 27 19 6 7 9 9 8 7 8 10 11 10 10 12 15 17 15 22 36 44 45 46 48 51 53 57 59 60 61 61 58 56 55 53 54 56 57 60 64 66 65 62 58 57 59 60 61 64 65 66 68 69 69 70 71 73 74 75 75 76 76 76 77 78 80 82 86 88 86 82 74
33 31 28 26 19 7 5 7 7 7 7 8 9 9 10 11 13 16 17 16 22 34 41 42 41 42 45 48 52 55 57 58 57 55 53 51 50 51 53 55 58 63 65 64 62 58 55 56 58 60 61 62 64 66 67 68 68 70 72 73 74 74 75 75 75 76 76 77 77 79 82 84 84 79
34 32 29 26 21 9 2 4 4 6 8 9 9 10 11 12 13 15 16 17 22 32 37 36 35 36 40 44 47 50 52 53 53 52 50 49 49 49 51 52 56 60 63 63 62 58 55 55 57 58 59 60 61 63 65 66 66 68 70 72 72 73 73 74 74 75 75 75 74 73 75 77 81 84
35 32 29 26 23 13 1 3 2 7 11 11 10 11 12 12 13 15 16 16 19 32 36 33 31 34 37 40 41 43 47 49 49 48 47 47 47 48 48 50 53 58 61 62 61 58 55 54 55 57 58 59 59 61 63 64 65 66 68 70 71 72 73 73 73 73 73 73 71 71 70 70 74 82
36 32 29 27 24 17 5 2 3 9 14 13 12 13 13 13 15 18 19 18 19 28 34 31 31 33 36 38 39 39 43 45 46 45 45 45 46 46 46 47 50 55 60 61 60 58 54 52 53 55 57 57 58 59 60 61 63 64 66 68 70 71 72 73 73 73 72 71 71 70 71 71 71 75
39 32 29 26 25 20 10 1 4 11 16 15 13 14 14 14 15 19 23 23 22 24 27 29 30 32 35 38 39 40 41 42 42 42 42 42 43 43 44 45 47 51 57 59 59 57 54 52 52 54 56 57 57 57 59 60 60 62 64 66 68 70 72 73 73 73 71 71 72 72 73 75 75 74
43 34 29 26 25 22 14 3 4 11 17 17 15 16 17 16 17 20 24 26 26 25 25 25 27 30 33 36 37 38 39 39 39 38 39 40 40 40 41 42 44 47 52 57 58 56 53 51 50 51 54 56 56 56 57 58 59 60 61 64 66 68 71 73 74 73 72 72 74 75 76 76 75 75
46 39 32 26 24 22 17 7 3 11 17 19 18 18 19 18 18 21 24 26 27 28 26 24 26 30 33 34 34 35 36 36 36 37 37 37 38 38 39 40 41 43 47 52 54 54 52 50 49 49 51 54 56 57 57 57 58 59 60 62 64 66 69 72 73 74 73 73 76 80 81 78 75 76
46 42 35 28 23 21 18 11 1 9 16 20 20 20 21 21 20 22 25 26 27 28 27 25 25 30 34 34 33 34 34 33 33 35 36 37 37 38 39 40 41 42 43 46 49 51 51 50 49 48 49 52 55 56 57 57 58 59 60 61 62 64 66 70 73 74 74 74 77 82 84 80 77 78
47 43 38 32 25 21 18 14 6 5 13 19 22 22 23 24 23 24 26 27 28 28 28 26 26 29 33 34 34 34 33 31 30 32 35 37 38 38 39 40 41 42 43 45 46 48 49 49 49 48 48 50 53 55 56 57 58 58 60 61 62 62 64 67 71 73 75 75 77 83 85 82 80 81
48 44 39 34 28 22 19 16 11 2 7 15 21 23 24 25 26 26 27 28 28 29 29 28 27 28 31 34 36 36 33 30 30 31 34 36 38 38 38 39 40 41 43 44 45 46 47 48 49 49 48 49 51 54 55 56 56 57 58 60 61 62 64 65 68 72 74 75 77 82 87 86 84 82
48 45 40 35 28 22 18 16 13 8 1 10 18 23 25 26 28 28 29 30 31 31 31 30 30 30 32 35 38 38 35 32 33 33 34 36 38 38 37 38 39 40 41 43 44 45 46 47 48 49 49 49 50 53 54 55 55 56 57 58 60 61 63 64 66 69 73 75 77 81 86 88 87 84
47 45 42 38 32 25 19 15 14 11 7 2 10 19 23 26 28 30 30 31 33 34 33 32 33 34 35 38 40 40 38 35 35 34 35 36 37 38 37 37 38 40 41 42 44 44 45 46 47 48 48 49 50 52 54 55 55 55 56 57 58 60 62 63 65 68 71 74 77 80 84 86 86 84
46 45 44 42 38 32 24 18 14 12 10 6 1 9 18 23 26 28 30 32 33 35 36 34 34 36 38 40 42 43 41 39 37 36 36 36 36 37 37 38 39 40 41 42 44 44 44 45 46 47 48 48 49 51 53 54 55 54 55 55 56 58 60 62 64 66 69 72 75 78 82 83 84 83
46 45 44 43 41 37 30 22 16 13 11 8 5 0 7 16 23 27 29 31 32 35 37 37 36 37 39 42 44 44 43 42 40 38 37 37 37 36 37 37 38 40 42 43 44 45 45 46 46 47 48 48 49 50 52 54 55 55 55 55 55 56 57 59 62 64 67 70 73 77 79 81 81 82
49 45 44 43 41 39 35 27 19 14 11 9 6 4 1 6 14 21 26 30 31 33 36 39 39 39 40 42 45 46 45 44 43 41 40 39 38 37 37 37 38 39 41 43 44 45 46 47 47 48 48 49 49 50 51 53 54 55 56 55 55 56 56 57 59 61 64 67 70 74 77 79 80 79
52 47 44 43 41 39 37 33 25 16 12 10 8 5 3 2 4 12 20 26 31 33 36 39 41 41 41 42 44 46 47 46 45 44 43 42 40 39 38 37 37 38 40 41 43 45 46 47 48 49 50 50 50 50 51 52 53 54 55 56 56 56 56 57 58 60 62 65 67 70 73 76 78 77
55 50 45 43 41 40 37 35 31 23 15 10 8 7 4 3 2 4 11 19 28 32 35 37 40 42 43 43 44 46 48 48 47 46 45 44 43 41 40 38 37 38 39 40 41 43 45 46 48 49 50 51 51 51 51 52 53 53 54 55 56 56 56 57 58 59 61 63 65 67 69 72 74 74
56 53 48 43 41 40 38 36 33 30 22 14 9 7 6 4 2 3 5 11 21 29 33 36 39 42 43 44 44 45 47 49 49 49 47 46 45 44 42 40 39 38 38 39 40 41 43 45 46 48 50 51 52 52 52 53 53 54 54 54 55 55 56 56 57 59 61 63 64 66 67 68 70 71
57 54 50 46 41 39 39 37 34 32 29 22 13 8 7 5 3 3 4 6 13 22 29 33 36 39 42 44 44 44 46 48 49 50 50 49 47 46 45 43 41 40 39 39 40 41 41 43 44 46 48 50 51 52 53 53 53 54 54 54 54 54 55 56 57 58 60 61 63 65 67 68 69 69
57 55 52 48 44 40 38 37 35 33 31 28 22 13 8 6 5 4 4 5 9 15 23 29 33 36 39 42 44 45 45 46 48 49 51 51 50 49 48 47 45 43 41 40 41 41 42 42 43 44 46 48 49 51 52 53 53 53 54 54 54 54 54 54 56 57 58 60 61 63 65 67 69 70
56 55 53 50 47 42 38 36 35 34 31 29 27 21 14 8 7 6 5 6 8 11 16 23 28 32 35 38 41 44 45 45 46 47 49 50 51 51 51 50 49 47 45 43 42 42 43 43 43 43 44 46 47 48 49 50 51 52 53 54 54 54 54 54 54 55 57 58 60 61 62 64 66 69
54 54 53 51 48 45 41 36 34 33 32 30 27 25 21 14 8 7 8 8 8 10 14 18 23 28 32 35 38 41 43 44 45 46 47 48 49 50 51 52 52 51 49 47 46 44 44 44 44 44 44 45 45 47 48 49 50 51 51 52 54 54 55 55 55 55 55 56 57 59 60 62 63 65
53 53 53 52 49 46 43 39 35 32 31 30 28 26 24 21 15 9 7 9 10 11 13 15 19 23 27 31 35 38 40 42 43 44 45 46 47 48 49 50 52 52 52 52 50 48 47 46 46 46 46 46 46 46 46 47 48 49 50 51 52 54 55 55 56 56 56 55 56 57 58 59 61 61
52 52 52 52 50 47 44 42 38 34 31 30 29 26 24 23 21 17 10 7 10 13 14 15 17 20 24 27 30 34 37 39 41 42 43 44 45 46 46 47 49 51 52 54 54 53 51 50 49 48 48 48 48 48 47 47 48 49 50 50 51 52 54 55 56 57 57 57 56 56 56 57 58 59
51 51 51 51 51 49 46 43 40 37 33 30 28 27 25 23 21 20 17 12 8 10 14 17 18 20 22 25 28 30 33 36 39 41 42 43 44 45 45 46 46 48 50 52 54 55 55 54 53 52 51 50 50 50 50 49 49 50 50 50 51 52 53 54 55 56 57 58 58 58 57 57 57 57
Wind_Direction
301 296 292 290 288 285 280 275 268 261 256 251 246 243 242 240 237 234 232 231 230 228 227 229 230 227 223 223 224 225 226 225 222 221 220 220 221 222 223 223 223 223 224 224 223 222 221 221 220 219 220 220 219 219 218 219 220 221 221 221 222 222 223 223 223 224 226 227 228 229 231 232 233 236
305 301 300 299 297 294 287 280 273 266 260 254 249 244 241 240 238 235 232 229 228 228 226 227 229 228 223 221 222 223 224 225 223 221 220 220 220 221 223 223 222 222 222 223 224 223 222 221 220 219 219 220 219 218 218 219 219 220 220 221 221 221 223 223 223 224 225 227 229 229 231 232 233 235
310 307 306 306 304 300 293 286 278 271 264 257 252 247 243 239 238 236 233 228 226 227 226 225 227 228 224 220 221 221 221 223 223 221 219 219 219 220 221 222 222 221 221 222 223 223 223 221 221 220 219 219 219 218 218 219 219 220 220 220 221 221 222 223 223 224 225 227 229 229 231 232 232 234
315 314 314 314 311 305 299 293 286 277 270 262 255 250 245 241 237 235 234 229 225 225 225 224 225 227 224 220 218 220 220 221 223 222 219 218 218 219 220 220 220 221 220 220 222 223 223 222 221 221 220 219 219 218 218 218 219 219 220 220 220 220 221 222 223 224 226 228 229 232 234 232 229 231
321 321 321 320 317 311 306 300 293 285 276 268 260 253 247 243 238 234 232 229 225 223 223 224 224 225 224 220 217 218 219 219 221 222 219 217 218 219 219 219 220 220 220 219 220 222 223 223 222 221 220 219 219 218 218 218 218 219 219 219 219 220 221 222 222 223 225 228 229 231 233 234 232 231
325 324 325 324 319 315 311 305 297 289 282 273 265 257 250 244 240 236 231 228 224 222 221 222 222 223 222 219 216 215 217 218 219 221 220 217 217 218 219 219 219 220 220 219 219 221 223 223 222 221 221 220 219 218 218 218 218 218 219 219 219 219 220 221 221 221 219 222 227 224 220 224 228 226
327 327 328 327 322 319 316 310 303 295 286 278 269 262 254 246 242 238 232 227 223 220 220 220 221 221 220 217 216 214 215 217 218 219 220 217 216 217 218 219 219 219 220 219 218 219 222 223 222 221 221 220 219 219 218 217 217 218 218 219 218 219 220 219 219 219 215 213 218 219 212 211 215 216
330 332 333 331 327 325 322 316 310 302 292 284 275 267 259 249 242 239 234 228 222 219 218 218 218 220 218 215 214 213 213 216 217 217 219 218 215 216 217 219 218 218 218 218 217 218 220 222 222 221 221 220 220 219 218 217 217 217 217 218 218 218 219 219 217 218 216 212 210 214 214 211 212 217
334 336 337 335 332 330 327 322 315 309 301 294 289 280 269 256 244 237 233 229 222 217 217 217 216 217 217 213 213 212 212 213 215 216 217 218 215 214 215 217 218 218 217 217 215 216 218 220 221 221 221 220 220 219 219 217 217 217 217 218 218 217 218 218 217 217 217 217 215 215 219 220 220 225
338 340 341 339 335 334 331 325 320 318 316 317 316 307 291 271 251 238 231 228 223 217 216 215 214 214 214 212 211 211 211 211 213 214 215 217 215 213 212 215 217 218 218 216 215 215 217 218 220 221 221 220 220 219 219 218 217 216 217 217 217 217 218 217 217 216 217 218 219 220 223 226 229 232
340 341 343 343 340 338 334 329 329 330 338 350 345 334 321 299 267 243 231 227 222 217 214 214 212 211 210 209 209 209 209 210 211 212 214 215 215 213 211 212 214 217 218 217 215 214 216 217 218 219 220 220 220 220 219 218 217 216 216 216 216 216 218 217 216 215 215 217 220 222 225 227 229 229
341 343 345 346 345 341 336 335 339 344 2 9 354 336 331 321 285 252 234 227 222 216 213 211 209 208 207 206 207 207 207 208 209 210 212 214 215 214 211 210 211 214 215 216 215 214 215 216 217 217 218 220 220 220 219 218 217 216 215 215 215 215 217 217 216 215 214 215 217 221 224 227 228 228
343 345 348 349 349 345 341 344 358 27 25 12 353 338 338 337 309 263 238 227 220 214 210 206 204 204 203 203 205 205 205 205 206 208 211 213 214 214 211 209 209 211 212 214 215 214 215 216 216 217 217 219 220 220 219 218 217 216 214 214 214 215 216 216 216 216 215 214 214 216 221 225 226 227
345 348 351 352 351 348 349 4 45 51 26 3 355 360 6 5 355 299 242 226 215 207 202 199 198 199 200 201 202 204 204 204 205 207 209 211 212 213 211 209 208 209 211 213 214 214 214 215 216 216 217 218 219 220 220 218 217 216 214 213 213 213 215 215 216 216 216 216 215 214 218 223 224 225
350 352 353 353 353 352 355 36 70 52 23 11 17 28 34 32 27 12 240 214 205 197 190 189 191 194 197 198 199 201 203 205 206 206 207 210 211 212 211 210 209 209 211 213 213 213 213 214 215 216 217 217 218 220 220 219 217 216 214 212 212 212 214 215 215 216 215 215 216 214 214 219 222 223
355 356 354 353 356 357 7 75 84 58 38 39 34 31 35 39 38 35 86 185 190 185 180 181 184 186 191 194 196 199 203 205 205 205 206 208 211 211 211 210 209 209 211 213 213 213 213 213 213 214 216 217 218 218 219 219 217 216 214 212 211 211 213 213 214 215 214 213 213 212 212 214 216 217
358 359 356 355 358 3 41 101 95 75 59 52 42 38 41 45 47 51 86 150 171 175 173 176 180 181 184 189 193 198 201 204 204 204 205 207 210 211 211 210 209 209 211 212 213 213 213 212 212 213 214 216 217 217 218 218 217 216 214 213 211 211 212 213 213 214 214 212 211 211 212 213 214 214
2 360 358 359 1 11 90 112 101 85 69 56 47 49 53 51 52 63 88 132 161 169 169 171 175 175 178 185 192 196 199 202 204 204 204 207 209 210 211 211 209 208 209 211 211 212 213 212 211 211 212 214 216 216 217 218 217 216 214 213 212 211 211 212 213 213 214 213 211 211 212 213 216 218
6 2 0 3 6 26 114 114 106 92 78 65 51 53 60 56 56 70 85 118 157 166 166 167 170 173 178 186 191 194 197 201 203 204 205 207 208 210 211 211 210 208 208 209 209 210 213 212 210 210 211 212 214 215 216 216 216 216 214 213 213 212 212 212 213 213 214 215 214 212 212 212 213 217
9 5 3 5 10 41 127 123 115 104 92 83 64 59 69 69 68 76 83 109 154 166 167 169 173 177 183 187 191 193 196 199 202 203 205 207 208 210 212 212 211 209 208 209 208 209 211 212 211 210 210 211 212 213 214 215 215 215 214 213 213 213 213 212 213 213 214 216 216 215 215 213 212 214
9 7 6 8 12 31 138 141 131 119 105 96 83 79 87 83 76 78 83 108 147 163 169 172 176 180 183 185 188 192 195 199 201 203 205 208 209 210 212 212 211 210 209 208 208 209 210 211 211 210 210 211 212 212 213 214 214 214 213 213 213 214 213 213 213 214 215 216 216 216 216 216 213 213
9 7 7 10 14 18 151 167 152 140 123 106 100 101 100 93 85 82 84 102 140 159 163 165 168 174 179 183 185 189 193 197 200 202 205 207 209 210 212 213 212 212 210 209 209 209 210 211 211 211 211 211 211 212 212 213 213 214 213 213 213 213 214 213 213 214 215 216 216 215 215 216 214 212
9 7 7 12 15 13 358 194 176 152 139 121 114 115 112 107 106 104 97 100 134 155 156 152 156 164 172 177 181 184 190 194 198 201 204 207 208 209 210 212 213 213 211 210 210 210 210 210 211 212 212 212 211 211 212 213 213 213 213 213 212 212 213 213 214 215 215 216 215 213 212 214 215 212
9 8 7 12 16 13 358 226 179 154 146 134 127 129 126 124 123 123 122 118 131 151 155 152 153 158 163 167 172 178 186 192 196 200 203 206 207 207 208 210 212 213 213 211 211 211 210 210 210 211 211 211 211 211 212 212 213 213 213 213 213 212 212 213 214 214 215 215 214 210 208 210 214 214
10 10 7 11 16 14 6 300 180 161 152 143 141 144 141 139 136 135 136 135 138 151 158 154 152 157 162 166 170 176 183 189 194 198 202 204 205 206 206 206 209 212 213 213 212 212 212 211 210 211 210 210 210 211 212 212 212 213 213 213 213 213 212 212 213 214 214 214 212 208 207 208 212 215
9 10 9 10 15 16 11 360 184 169 159 153 152 155 154 152 149 145 144 143 145 153 160 159 158 161 164 167 171 177 182 186 190 195 199 202 204 203 202 203 206 210 213 213 213 212 213 212 211 211 210 209 209 210 211 211 212 212 213 213 214 214 212 212 212 213 213 214 211 207 206 209 213 215
8 9 10 11 15 17 15 14 183 177 168 163 162 163 164 164 159 154 152 151 152 156 162 167 170 167 163 165 170 175 178 182 187 191 195 198 199 198 198 199 203 207 212 214 214 213 213 213 212 212 211 209 209 210 210 211 211 212 212 213 213 214 213 213 213 212 212 213 211 207 207 210 213 214
9 9 9 10 13 17 20 21 66 185 178 172 170 170 171 171 166 160 158 158 158 160 164 171 178 173 166 166 169 170 173 178 183 189 192 193 193 194 196 198 200 203 207 212 214 215 214 213 213 213 212 210 209 210 211 211 212 212 213 213 213 214 214 214 213 213 212 213 212 208 208 211 212 212
11 10 9 8 10 15 21 27 37 187 189 182 178 176 177 177 173 167 166 165 164 163 165 173 181 177 171 169 168 166 168 173 179 186 191 191 192 194 196 198 199 200 202 205 209 212 213 214 214 214 213 211 209 209 210 211 212 213 214 214 214 214 214 214 214 213 213 213 213 210 209 211 211 211
12 12 11 8 7 9 16 25 35 63 199 195 187 184 183 183 180 176 174 174 172 169 169 175 181 178 174 173 169 166 168 172 177 184 189 191 193 195 196 198 199 199 200 201 204 206 209 211 213 214 214 212 210 209 209 210 211 212 214 215 215 214 214 215 215 214 213 214 214 212 211 212 212 212
12 14 14 12 8 6 8 17 31 43 116 203 200 195 191 189 188 186 183 183 183 181 178 179 180 177 174 175 173 170 171 175 179 183 187 191 193 195 196 197 198 199 200 201 202 204 206 208 210 212 214 213 211 209 209 209 210 212 213 214 215 215 215 215 215 215 214 214 214 214 214 215 215 215
11 13 14 16 15 11 8 11 22 36 48 155 208 208 203 199 196 194 193 192 191 190 186 183 182 179 176 176 177 175 174 178 182 185 188 191 193 195 196 197 198 198 199 200 201 202 204 206 208 210 211 212 212 210 209 209 210 211 213 214 215 215 215 215 215 215 215 215 215 215 216 218 218 218
11 12 14 16 17 15 12 9 12 23 35 45 144 214 214 211 207 204 202 200 198 196 193 189 186 183 180 179 180 179 178 180 184 187 190 192 193 194 195 196 197 198 198 198 199 201 202 204 206 207 209 210 211 211 210 210 210 210 211 213 214 215 215 215 215 216 216 215 215 216 218 220 220 220
11 12 15 16 16 16 15 10 6 9 18 30 38 45 219 219 217 213 211 208 204 201 200 196 192 189 186 184 183 183 183 184 186 189 192 193 194 194 195 196 197 198 198 199 199 199 200 202 203 205 207 209 210 211 211 210 210 210 210 211 212 214 215 215 216 216 216 216 216 217 218 220 222 222
11 12 14 16 16 17 17 14 9 3 3 11 21 28 5 231 224 220 217 213 209 206 204 203 199 195 191 188 187 187 188 188 188 191 193 195 196 196 196 197 198 199 199 200 200 200 200 200 201 203 205 206 208 210 211 211 211 210 210 210 211 212 213 215 216 216 216 216 216 217 218 221 222 223
12 12 13 15 16 17 17 16 14 7 357 356 3 8 12 341 247 228 221 216 212 208 207 206 204 201 197 193 191 191 192 192 192 193 195 196 197 198 198 199 199 200 201 201 202 202 201 201 200 202 203 204 206 208 210 211 212 211 210 210 210 211 212 213 214 215 216 217 217 217 218 220 222 223
13 13 13 13 15 16 17 17 17 14 5 352 349 353 355 347 312 253 228 219 214 210 209 209 208 206 203 199 196 195 196 196 196 197 198 199 200 200 201 201 201 202 203 203 204 204 204 203 202 202 202 203 204 205 207 210 211 212 211 211 210 211 211 212 213 214 216 217 217 217 217 218 220 222
13 13 13 12 13 14 15 17 17 17 14 4 346 339 341 337 313 284 245 222 215 212 211 211 211 210 208 205 202 200 199 200 200 201 201 202 202 203 204 204 205 205 205 206 206 206 207 206 206 204 204 203 203 204 206 208 210 211 211 211 211 211 211 211 212 213 214 216 217 217 218 218 219 221
14 14 13 13 12 12 13 15 16 17 17 14 3 340 325 324 312 281 256 229 216 213 213 214 214 214 213 211 209 206 204 203 204 204 205 205 205 206 207 207 208 208 208 208 208 208 209 209 209 208 207 206 206 206 207 207 209 210 211 211 211 211 211 211 211 212 213 215 216 217 218 218 219 220
15 14 14 13 13 12 12 12 13 15 17 17 15 4 335 310 301 284 257 238 223 215 213 215 216 217 217 216 215 213 211 209 208 208 208 209 209 209 209 210 210 211 211 210 210 210 210 211 211 210 210 210 210 210 210 210 210 210 210 211 211 212 211 211 211 212 213 213 215 216 217 217 218 219
15 15 14 14 13 13 12 11 11 12 14 16 17 15 5 333 298 281 264 247 234 223 217 216 217 218 219 219 220 219 218 216 214 213 212 213 213 213 213 212 212 213 213 213 212 212 212 212 212 212 212 212 212 213 213 213 212 212 211 212 212 212 212 212 212 212 212 213 214 214 215 216 217 218
14 15 15 14 13 13 12 11 10 10 10 12 14 16 15 7 336 289 268 255 243 234 227 222 220 219 220 221 222 222 223 222 221 219 218 217 217 217 217 216 216 216 216 216 215 214 213 213 213 214 214 214 214 214 214 214 214 214 213 213 212 212 212 213 213 213 213 213 214 214 215 215 216 217
14 15 15 15 14 13 12 12 10 9 9 9 10 11 13 14 9 344 290 263 252 243 236 231 227 224 222 222 222 223 224 225 225 225 224 223 222 221 221 220 220 219 219 218 218 218 217 215 215 215 215 216 216 216 216 216 215 215 214 214 214 213 213 213 214 214 214 214 214 215 216 216 216 216
13 14 15 15 15 14 13 12 11 9 7 7 8 9 9 9 10 7 351 301 263 250 243 238 234 231 228 226 225 224 225 226 227 227 228 228 227 226 225 224 223 222 222 221 221 221 220 219 218 216 216 217 217 217 218 218 217 216 216 215 215 215 214 214 214 215 215 215 215 216 217 217 217 217
12 13 14 15 15 15 14 13 12 10 8 6 6 7 7 6 5 4 3 354 317 270 252 245 241 237 234 231 229 228 227 227 227 228 229 229 229 229 228 228 227 226 225 224 223 223 223 222 221 220 219 218 218 218 218 219 219 218 217 216 216 216 215 215 215 215 216 216 216 216 217 217 218 219
Height
5207 5203 5200 5199 5198 5197 5195 5194 5193 5192 5193 5195 5198 5201 5204 5209 5216 5222 5228 5236 5245 5251 5255 5260 5264 5271 5280 5286 5291 5297 5303 5309 5315 5322 5330 5338 5345 5352 5359 5367 5376 5387 5398 5407 5415 5424 5432 5440 5449 5458 5466 5474 5483 5493 5501 5508 5516 5524 5532 5539 5546 5555 5562 5570 5578 5585 5590 5595 5601 5607 5612 5616 5621 5624
5201 5197 5195 5192 5191 5189 5188 5186 5185 5184 5184 5185 5187 5189 5192 5197 5203 5209 5215 5224 5234 5240 5245 5251 5254 5259 5269 5277 5282 5289 5296 5302 5307 5314 5322 5330 5339 5347 5353 5360 5369 5378 5389 5399 5408 5416 5424 5432 5441 5449 5458 5466 5475 5484 5493 5501 5508 5516 5524 5531 5538 5547 5554 5562 5570 5577 5583 5588 5594 5601 5605 5609 5614 5618
5195 5192 5189 5187 5184 5182 5180 5179 5178 5177 5176 5177 5178 5179 5182 5186 5191 5196 5202 5213 5223 5229 5235 5241 5245 5249 5257 5267 5274 5282 5289 5295 5300 5306 5314 5322 5332 5339 5346 5354 5362 5371 5381 5391 5400 5409 5417 5425 5433 5441 5450 5458 5467 5476 5485 5493 5500 5508 5516 5523 5531 5539 5547 5554 5562 5570 5576 5582 5588 5593 5597 5602 5607 5612
5190 5187 5184 5181 5178 5176 5174 5172 5171 5170 5169 5170 5170 5171 5173 5176 5180 5184 5190 5200 5211 5218 5224 5231 5235 5239 5247 5257 5267 5275 5282 5288 5293 5299 5306 5315 5323 5331 5339 5348 5355 5363 5373 5383 5393 5401 5410 5418 5426 5433 5441 5450 5459 5467 5476 5484 5492 5500 5508 5516 5524 5532 5539 5547 5555 5564 5572 5577 5583 5587 5590 5595 5600 5605
5185 5182 5179 5176 5173 5171 5169 5167 5166 5164 5163 5163 5163 5164 5165 5167 5170 5174 5179 5189 5199 5208 5215 5220 5225 5229 5237 5248 5260 5268 5275 5281 5286 5292 5299 5307 5315 5324 5333 5341 5349 5356 5365 5375 5385 5394 5402 5411 5418 5426 5434 5442 5451 5459 5468 5476 5484 5492 5500 5508 5516 5524 5531 5539 5549 5559 5568 5572 5577 5582 5584 5587 5591 5596
5181 5178 5175 5172 5169 5167 5164 5162 5160 5158 5157 5157 5157 5157 5158 5160 5162 5165 5171 5179 5188 5198 5204 5209 5213 5219 5228 5241 5252 5260 5267 5274 5279 5285 5292 5301 5309 5317 5327 5335 5343 5351 5359 5368 5377 5386 5394 5403 5411 5418 5426 5434 5443 5450 5459 5468 5476 5485 5492 5500 5509 5516 5523 5532 5541 5553 5564 5566 5569 5574 5576 5577 5583 5589
5178 5175 5172 5169 5165 5162 5159 5156 5154 5153 5152 5151 5151 5151 5152 5154 5156 5158 5163 5170 5178 5187 5193 5197 5203 5209 5220 5233 5244 5252 5260 5266 5273 5280 5287 5295 5303 5312 5321 5330 5338 5345 5352 5361 5370 5378 5387 5395 5403 5411 5419 5427 5434 5442 5451 5460 5469 5477 5485 5492 5501 5509 5515 5524 5533 5544 5554 5558 5560 5565 5567 5568 5575 5583
5176 5172 5169 5166 5162 5158 5155 5152 5150 5148 5147 5147 5147 5147 5147 5148 5150 5152 5156 5161 5168 5176 5182 5187 5194 5201 5212 5227 5236 5244 5253 5260 5267 5275 5282 5290 5298 5306 5315 5323 5331 5338 5345 5354 5363 5371 5379 5388 5396 5404 5412 5419 5427 5434 5443 5452 5460 5469 5477 5484 5493 5501 5507 5515 5524 5533 5543 5548 5551 5557 5560 5561 5567 5574
5173 5170 5167 5163 5158 5155 5151 5148 5146 5145 5144 5144 5143 5143 5143 5143 5145 5147 5150 5155 5160 5167 5173 5179 5186 5194 5206 5220 5229 5237 5247 5255 5262 5270 5277 5284 5292 5300 5308 5316 5324 5331 5338 5347 5356 5365 5372 5380 5389 5398 5405 5412 5419 5426 5435 5444 5452 5460 5468 5476 5484 5493 5499 5506 5515 5523 5532 5539 5543 5547 5551 5554 5560 5566
5171 5167 5164 5160 5156 5152 5148 5146 5144 5143 5143 5142 5142 5141 5141 5140 5141 5142 5145 5148 5153 5159 5165 5172 5180 5188 5200 5213 5223 5231 5241 5249 5257 5265 5272 5279 5286 5294 5302 5310 5318 5325 5333 5341 5349 5358 5365 5374 5382 5391 5398 5405 5412 5419 5427 5435 5444 5452 5460 5468 5476 5484 5491 5498 5507 5515 5523 5530 5535 5540 5543 5548 5555 5562
5169 5165 5162 5158 5153 5149 5146 5144 5143 5142 5142 5142 5141 5140 5139 5139 5139 5139 5142 5144 5147 5154 5160 5166 5175 5184 5195 5207 5217 5225 5235 5243 5252 5260 5267 5274 5281 5289 5297 5305 5312 5319 5327 5335 5342 5350 5358 5366 5374 5383 5391 5398 5405 5412 5420 5428 5437 5445 5452 5460 5469 5476 5483 5491 5499 5507 5515 5522 5527 5533 5538 5544 5551 5558
5168 5164 5160 5156 5152 5148 5145 5143 5142 5142 5142 5142 5142 5141 5139 5139 5138 5138 5139 5141 5144 5150 5156 5162 5171 5180 5190 5201 5210 5218 5228 5238 5247 5256 5263 5270 5277 5284 5291 5299 5306 5314 5322 5329 5336 5344 5351 5359 5368 5376 5383 5391 5398 5405 5412 5421 5429 5437 5445 5453 5461 5469 5476 5483 5491 5498 5505 5512 5519 5527 5533 5538 5544 5551
5167 5162 5158 5154 5150 5147 5144 5143 5143 5143 5143 5143 5142 5141 5140 5139 5138 5138 5138 5140 5143 5148 5153 5160 5168 5176 5186 5196 5204 5213 5223 5234 5243 5251 5258 5265 5272 5278 5285 5293 5301 5309 5316 5323 5330 5338 5345 5353 5361 5369 5377 5385 5392 5399 5406 5414 5422 5430 5438 5446 5454 5461 5468 5475 5483 5490 5497 5504 5512 5520 5527 5531 5537 5544
5166 5162 5158 5153 5150 5147 5145 5144 5144 5144 5144 5144 5143 5142 5141 5139 5138 5138 5138 5140 5142 5146 5151 5158 5166 5174 5183 5193 5202 5213 5223 5232 5240 5247 5254 5261 5266 5273 5280 5288 5296 5304 5312 5319 5326 5333 5340 5347 5355 5363 5371 5378 5385 5393 5400 5408 5416 5424 5432 5439 5446 5454 5461 5468 5475 5482 5489 5497 5505 5514 5521 5526 5531 5537
5167 5162 5158 5154 5150 5148 5146 5146 5146 5146 5146 5146 5145 5144 5143 5141 5140 5139 5139 5140 5142 5146 5151 5158 5165 5173 5183 5192 5202 5212 5221 5228 5235 5242 5249 5256 5262 5270 5277 5285 5292 5300 5308 5315 5322 5328 5335 5342 5349 5357 5365 5372 5379 5387 5395 5402 5409 5417 5424 5432 5439 5446 5453 5460 5468 5475 5482 5490 5498 5507 5515 5521 5525 5531
5167 5163 5158 5154 5151 5149 5148 5147 5148 5148 5148 5147 5147 5146 5145 5143 5142 5141 5140 5142 5144 5148 5153 5158 5165 5173 5182 5192 5201 5209 5215 5222 5229 5237 5246 5253 5260 5268 5274 5281 5288 5296 5303 5311 5317 5323 5330 5337 5344 5352 5359 5366 5374 5381 5388 5395 5402 5409 5417 5424 5432 5439 5446 5453 5460 5467 5475 5483 5491 5500 5508 5515 5520 5526
5168 5164 5160 5155 5152 5150 5150 5149 5150 5150 5149 5149 5149 5148 5147 5146 5145 5143 5142 5144 5146 5150 5155 5160 5165 5172 5180 5189 5197 5203 5210 5219 5227 5236 5244 5251 5258 5265 5271 5278 5284 5291 5299 5306 5313 5319 5325 5332 5339 5346 5353 5360 5368 5375 5382 5389 5396 5403 5410 5417 5425 5432 5439 5446 5453 5460 5468 5476 5484 5493 5501 5508 5514 5520
5169 5165 5161 5157 5154 5152 5152 5152 5152 5152 5151 5151 5151 5150 5150 5149 5148 5146 5145 5146 5149 5152 5157 5162 5167 5173 5180 5186 5192 5200 5209 5219 5227 5236 5243 5250 5256 5263 5268 5274 5280 5287 5295 5302 5308 5315 5321 5327 5334 5341 5347 5355 5362 5369 5376 5383 5390 5397 5404 5411 5418 5425 5432 5439 5446 5453 5460 5468 5476 5484 5492 5500 5507 5513
5170 5166 5162 5158 5156 5154 5154 5154 5154 5154 5154 5153 5153 5153 5152 5152 5151 5150 5149 5150 5152 5156 5160 5165 5170 5175 5180 5187 5194 5203 5212 5220 5227 5235 5242 5248 5254 5260 5265 5271 5277 5284 5291 5298 5305 5311 5317 5323 5329 5336 5342 5350 5356 5363 5370 5377 5385 5392 5398 5405 5412 5419 5426 5432 5439 5446 5453 5460 5467 5475 5483 5491 5500 5507
5172 5168 5164 5160 5158 5157 5157 5157 5156 5156 5156 5156 5155 5155 5155 5155 5154 5153 5152 5153 5156 5160 5164 5169 5173 5178 5184 5191 5199 5207 5213 5220 5227 5235 5241 5247 5253 5258 5264 5269 5275 5281 5288 5295 5302 5308 5314 5319 5325 5331 5337 5344 5351 5358 5364 5371 5379 5386 5392 5399 5406 5412 5419 5426 5433 5440 5446 5452 5459 5467 5475 5484 5493 5500
5173 5170 5166 5162 5160 5159 5159 5159 5159 5158 5158 5158 5158 5158 5158 5158 5157 5156 5156 5157 5159 5163 5168 5173 5178 5184 5190 5195 5201 5207 5214 5221 5228 5235 5240 5246 5251 5256 5261 5267 5273 5278 5285 5292 5299 5305 5310 5316 5322 5327 5333 5339 5346 5352 5359 5365 5373 5380 5386 5393 5399 5406 5413 5420 5427 5433 5440 5445 5452 5459 5467 5476 5485 5493
5175 5171 5168 5164 5161 5160 5160 5160 5160 5160 5160 5160 5160 5160 5161 5161 5161 5160 5161 5161 5162 5166 5171 5176 5181 5187 5192 5197 5203 5209 5215 5222 5228 5234 5239 5244 5249 5254 5259 5265 5270 5275 5281 5288 5295 5301 5307 5312 5317 5323 5328 5334 5340 5347 5353 5360 5367 5374 5381 5387 5393 5400 5407 5414 5420 5426 5433 5439 5445 5453 5460 5468 5477 5485
5177 5173 5170 5166 5163 5162 5161 5162 5162 5162 5162 5162 5162 5163 5163 5164 5164 5165 5165 5166 5167 5170 5175 5179 5183 5188 5193 5198 5204 5210 5216 5222 5227 5233 5238 5242 5247 5252 5257 5262 5267 5272 5278 5285 5291 5298 5303 5309 5314 5319 5324 5330 5336 5342 5349 5356 5363 5369 5376 5382 5388 5394 5401 5407 5414 5420 5426 5433 5439 5447 5454 5462 5470 5477
5179 5175 5172 5168 5165 5163 5162 5163 5163 5163 5164 5164 5164 5165 5166 5167 5168 5169 5170 5171 5172 5174 5178 5181 5184 5188 5193 5198 5204 5209 5215 5221 5226 5231 5235 5240 5245 5250 5255 5259 5264 5270 5275 5282 5288 5294 5300 5305 5310 5315 5320 5326 5332 5338 5344 5351 5357 5364 5370 5377 5382 5388 5395 5401 5408 5414 5420 5427 5434 5441 5449 5457 5464 5471
5181 5177 5174 5171 5168 5165 5164 5164 5164 5165 5165 5166 5166 5167 5168 5169 5170 5171 5173 5175 5176 5178 5180 5182 5186 5189 5194 5199 5204 5209 5215 5220 5225 5230 5234 5238 5243 5247 5252 5257 5262 5267 5272 5278 5284 5290 5296 5301 5306 5311 5316 5322 5328 5334 5340 5346 5352 5358 5365 5371 5376 5382 5389 5395 5402 5408 5414 5421 5428 5435 5443 5451 5457 5463
5183 5180 5176 5173 5170 5167 5166 5165 5165 5166 5167 5167 5168 5168 5169 5170 5172 5173 5175 5176 5179 5181 5183 5185 5188 5191 5195 5200 5205 5210 5215 5220 5225 5229 5233 5237 5242 5246 5250 5255 5260 5264 5269 5274 5281 5287 5292 5298 5302 5307 5312 5318 5324 5330 5335 5341 5347 5353 5359 5365 5371 5377 5383 5389 5395 5402 5409 5415 5422 5429 5437 5444 5450 5456
5186 5181 5178 5175 5172 5170 5168 5166 5166 5167 5168 5168 5169 5170 5171 5172 5173 5175 5177 5178 5180 5183 5185 5188 5190 5193 5196 5201 5206 5211 5215 5220 5225 5229 5233 5237 5241 5245 5250 5254 5259 5263 5268 5273 5278 5283 5288 5293 5299 5304 5309 5314 5319 5325 5331 5336 5342 5348 5354 5360 5366 5371 5377 5383 5389 5396 5403 5409 5416 5422 5429 5436 5443 5449
5188 5183 5180 5177 5175 5172 5170 5168 5167 5168 5169 5170 5171 5172 5172 5173 5175 5176 5178 5180 5182 5184 5187 5190 5192 5194 5198 5202 5207 5212 5216 5221 5225 5229 5232 5237 5241 5245 5249 5253 5258 5262 5266 5271 5276 5281 5285 5290 5295 5300 5305 5310 5315 5321 5327 5332 5338 5344 5349 5355 5360 5366 5371 5377 5383 5390 5396 5403 5409 5416 5423 5430 5437 5443
5192 5186 5182 5179 5176 5174 5172 5170 5169 5169 5170 5171 5172 5173 5174 5175 5176 5178 5179 5181 5183 5185 5188 5191 5193 5196 5200 5204 5208 5212 5217 5221 5225 5229 5232 5236 5240 5244 5248 5252 5256 5260 5264 5268 5273 5278 5282 5287 5291 5296 5301 5306 5311 5317 5322 5328 5333 5338 5344 5349 5355 5360 5365 5371 5377 5383 5390 5397 5403 5410 5417 5423 5430 5437
5195 5189 5184 5180 5177 5175 5174 5172 5170 5170 5171 5172 5173 5174 5175 5176 5177 5179 5180 5182 5184 5186 5188 5191 5193 5196 5200 5204 5208 5212 5217 5221 5224 5228 5231 5235 5239 5243 5246 5250 5254 5258 5262 5266 5270 5274 5279 5284 5288 5293 5298 5303 5308 5313 5318 5323 5328 5333 5338 5344 5349 5354 5360 5365 5371 5377 5384 5390 5397 5404 5410 5416 5422 5429
5198 5193 5188 5183 5180 5177 5176 5174 5172 5171 5171 5172 5174 5175 5176 5177 5178 5179 5181 5183 5184 5186 5188 5190 5193 5196 5200 5204 5208 5212 5216 5220 5224 5227 5230 5234 5238 5241 5245 5249 5253 5257 5261 5265 5269 5273 5277 5281 5286 5290 5295 5300 5304 5309 5314 5319 5324 5329 5333 5338 5344 5349 5355 5360 5365 5371 5377 5384 5390 5396 5403 5408 5414 5422
5201 5196 5191 5187 5182 5179 5177 5176 5174 5173 5172 5172 5173 5174 5176 5177 5178 5180 5181 5183 5184 5186 5188 5190 5193 5196 5199 5203 5207 5211 5214 5219 5222 5226 5229 5233 5236 5240 5244 5247 5251 5255 5259 5263 5267 5271 5275 5279 5283 5288 5292 5297 5301 5305 5310 5315 5319 5324 5329 5334 5338 5344 5349 5354 5360 5365 5371 5377 5383 5390 5396 5402 5407 5414
5204 5199 5193 5188 5184 5181 5178 5177 5175 5174 5173 5173 5173 5174 5175 5177 5178 5179 5181 5182 5184 5186 5188 5190 5193 5195 5199 5202 5206 5209 5213 5217 5221 5224 5228 5232 5235 5239 5242 5245 5248 5252 5256 5260 5264 5268 5273 5277 5281 5285 5289 5293 5297 5301 5306 5310 5315 5319 5324 5329 5334 5338 5343 5349 5354 5359 5365 5371 5378 5383 5389 5395 5401 5407
5207 5201 5196 5190 5186 5183 5180 5178 5176 5175 5174 5174 5174 5174 5174 5175 5177 5178 5180 5182 5184 5186 5188 5190 5192 5195 5198 5201 5204 5208 5211 5215 5219 5222 5226 5230 5233 5237 5240 5243 5246 5250 5254 5258 5262 5265 5270 5274 5278 5282 5286 5290 5294 5297 5301 5305 5310 5314 5319 5324 5328 5333 5338 5343 5348 5354 5360 5365 5371 5377 5382 5387 5393 5400
5209 5204 5198 5194 5190 5186 5182 5179 5177 5176 5175 5175 5174 5174 5174 5175 5175 5177 5178 5180 5182 5184 5186 5189 5191 5193 5196 5200 5203 5206 5210 5213 5216 5220 5224 5227 5231 5234 5237 5241 5244 5248 5252 5255 5259 5263 5266 5270 5274 5278 5282 5286 5290 5293 5297 5301 5305 5309 5314 5318 5323 5328 5333 5338 5343 5348 5354 5359 5365 5371 5376 5381 5386 5393
5211 5206 5201 5197 5192 5188 5185 5182 5179 5177 5176 5176 5175 5175 5175 5175 5175 5176 5177 5178 5180 5183 5185 5187 5190 5192 5195 5198 5201 5205 5208 5211 5215 5218 5221 5225 5228 5232 5235 5239 5242 5245 5249 5252 5256 5260 5263 5267 5271 5274 5278 5282 5286 5290 5293 5297 5301 5305 5309 5314 5318 5323 5327 5332 5337 5343 5348 5353 5359 5365 5371 5376 5380 5386
5214 5208 5203 5199 5195 5191 5188 5184 5181 5179 5177 5176 5176 5175 5175 5175 5175 5175 5176 5177 5179 5181 5184 5186 5188 5191 5194 5197 5200 5203 5206 5209 5213 5216 5219 5223 5226 5229 5233 5236 5239 5242 5246 5249 5253 5257 5260 5264 5267 5271 5274 5278 5282 5286 5289 5293 5297 5302 5306 5310 5314 5318 5322 5327 5332 5337 5342 5347 5352 5358 5364 5369 5374 5379
5216 5211 5206 5201 5197 5194 5190 5187 5184 5181 5179 5177 5176 5176 5175 5175 5175 5175 5176 5176 5178 5180 5183 5185 5187 5190 5192 5195 5198 5201 5204 5207 5210 5213 5217 5220 5223 5227 5230 5233 5236 5240 5243 5246 5249 5253 5256 5260 5264 5267 5271 5275 5278 5282 5285 5289 5293 5297 5301 5305 5309 5313 5318 5322 5326 5331 5335 5340 5345 5351 5356 5361 5366 5371
5220 5214 5209 5204 5200 5196 5192 5189 5186 5183 5180 5178 5177 5176 5176 5175 5175 5175 5176 5176 5177 5179 5181 5184 5186 5188 5191 5193 5196 5199 5202 5205 5208 5211 5214 5217 5220 5224 5227 5230 5233 5236 5239 5242 5246 5249 5252 5256 5260 5263 5267 5271 5274 5277 5280 5284 5288 5291 5295 5299 5303 5307 5311 5316 5320 5324 5329 5334 5339 5344 5349 5354 5358 5363
5223 5217 5212 5207 5202 5198 5195 5191 5188 5185 5183 5180 5178 5177 5176 5176 5175 5176 5176 5176 5177 5178 5180 5182 5184 5187 5189 5191 5194 5197 5200 5202 5205 5208 5211 5214 5217 5220 5223 5226 5230 5233 5236 5239 5242 5245 5248 5252 5255 5259 5263 5266 5269 5273 5276 5280 5283 5287 5291 5294 5298 5302 5305 5309 5313 5318 5322 5327 5332 5337 5341 5346 5351 5356
5226 5220 5215 5210 5205 5201 5197 5193 5190 5187 5184 5182 5180 5178 5177 5176 5175 5176 5176 5176 5177 5178 5179 5180 5182 5184 5187 5189 5191 5194 5197 5200 5202 5205 5208 5211 5213 5216 5219 5223 5226 5229 5232 5235 5238 5241 5244 5247 5251 5254 5258 5261 5264 5268 5272 5276 5279 5283 5286 5290 5293 5297 5301 5304 5308 5312 5316 5320 5325 5330 5334 5339 5343 5348
5229 5223 5218 5213 5208 5203 5199 5196 5192 5189 5186 5184 5181 5179 5178 5177 5176 5175 5175 5176 5177 5177 5178 5179 5180 5182 5184 5186 5189 5191 5193 5196 5199 5202 5204 5207 5210 5213 5216 5219 5222 5225 5228 5231 5233 5236 5239 5243 5246 5250 5253 5256 5260 5263 5267 5271 5274 5278 5282 5285 5289 5292 5296 5300 5303 5307 5311 5315 5319 5323 5327 5332 5336 5341
5231 5226 5221 5216 5211 5206 5201 5198 5194 5191 5188 5185 5183 5181 5179 5177 5176 5175 5175 5175 5176 5176 5177 5178 5179 5180 5182 5184 5186 5188 5190 5192 5195 5198 5200 5203 5206 5209 5211 5214 5217 5220 5223 5226 5229 5232 5235 5238 5242 5245 5248 5251 5255 5258 5262 5265 5269 5273 5277 5280 5284 5287 5291 5295 5298 5302 5305 5309 5313 5317 5321 5325 5330 5335
5234 5228 5223 5218 5213 5208 5204 5200 5196 5193 5190 5187 5185 5182 5180 5178 5177 5176 5175 5175 5175 5175 5176 5177 5178 5179 5180 5181 5183 5185 5186 5189 5191 5193 5196 5198 5201 5204 5207 5209 5212 5215 5218 5221 5224 5227 5230 5233 5236 5239 5243 5246 5249 5253 5256 5260 5264 5267 5271 5275 5278 5282 5286 5289 5293 5296 5300 5303 5307 5311 5315 5319 5324 5328
5235 5230 5225 5220 5215 5210 5206 5202 5198 5194 5191 5188 5186 5184 5182 5180 5178 5177 5175 5175 5174 5174 5174 5175 5176 5177 5178 5179 5180 5182 5183 5185 5187 5189 5191 5194 5196 5199 5201 5204 5207 5210 5212 5215 5218 5221 5224 5227 5230 5234 5237 5240 5244 5247 5251 5254 5258 5261 5265 5268 5272 5276 5280 5283 5287 5290 5294 5297 5301 5305 5308 5313 5317 5321